User: anonymous   Login
Location: Unspecified
(0.0000°N, 0.0000°E)
Time: 11:46:57
(UTC+00:00)
Language:

BRITE-PL - Orbit

View from above orbital plane
View from above orbital plane
View from above satellite
View from above satellite

Ground track
Ground track

The orbit data is extracted from the following two-line orbital elements,

1 39431U 13066R   18197.92149899 +.00000019 +00000-0 +14727-4 0  9998
2 39431 097.7593 146.9285 0201913 334.9883 024.1631 14.46941047245335
Epoch (UTC): 16 July 2018 22:06:57
Eccentricity: 0.0201913
inclination: 97.7593°
perigee height: 592 km
apogee height: 879 km
right ascension of ascending node: 146.9285°
argument of perigee: 334.9883°
revolutions per day: 14.46941047
mean anomaly at epoch: 24.1631°
orbit number at epoch: 24533

The dashed part of the orbit path shows where the satellite is in the earth's shadow,  

DLR